Year,Month,Day,Hour,Minute,Value (Times are PST for temperature in C)
2016,02,18,08,28,8.20
2016,02,18,08,29,8.20
2016,02,18,08,30,8.30
2016,02,18,08,31,8.30
2016,02,18,08,32,8.40
2016,02,18,08,33,8.40
2016,02,18,08,34,8.40
2016,02,18,08,35,8.40
2016,02,18,08,36,8.40
2016,02,18,08,37,8.40
2016,02,18,08,38,8.40
2016,02,18,08,39,8.40
2016,02,18,08,40,8.30
2016,02,18,08,41,8.30
2016,02,18,08,42,8.30
2016,02,18,08,43,8.40
2016,02,18,08,44,8.40
2016,02,18,08,45,8.40
2016,02,18,08,46,8.40
2016,02,18,08,47,8.40
2016,02,18,08,48,8.50
2016,02,18,08,49,8.50
2016,02,18,08,50,8.50
2016,02,18,08,51,8.50
2016,02,18,08,52,8.50
2016,02,18,08,53,8.50
2016,02,18,08,54,8.50
2016,02,18,08,55,8.50
2016,02,18,08,56,8.50
2016,02,18,08,57,8.50
2016,02,18,08,58,8.50
2016,02,18,08,59,8.50
2016,02,18,09,00,8.50
2016,02,18,09,01,8.50
2016,02,18,09,02,8.50
2016,02,18,09,03,8.50
2016,02,18,09,04,8.50
2016,02,18,09,05,8.50
2016,02,18,09,06,8.50
2016,02,18,09,07,8.50
2016,02,18,09,08,8.50
2016,02,18,09,09,8.50
2016,02,18,09,10,8.50
2016,02,18,09,11,8.50
2016,02,18,09,12,8.50
2016,02,18,09,13,8.50
2016,02,18,09,14,8.50
2016,02,18,09,15,8.50
2016,02,18,09,16,8.50
2016,02,18,09,17,8.50
2016,02,18,09,18,8.50
2016,02,18,09,19,8.50
2016,02,18,09,20,8.50
2016,02,18,09,21,8.50
2016,02,18,09,22,8.50
2016,02,18,09,23,8.50
2016,02,18,09,24,8.50
2016,02,18,09,25,8.40
2016,02,18,09,26,8.40
2016,02,18,09,27,8.40
2016,02,18,09,28,8.30
2016,02,18,09,29,8.30
2016,02,18,09,30,8.20
2016,02,18,09,31,8.30
2016,02,18,09,32,8.30
2016,02,18,09,33,8.30
2016,02,18,09,34,8.30
2016,02,18,09,35,8.30
2016,02,18,09,36,8.30
2016,02,18,09,37,8.30
2016,02,18,09,38,8.30
2016,02,18,09,39,8.30
2016,02,18,09,40,8.30
2016,02,18,09,41,8.30
2016,02,18,09,42,8.40
2016,02,18,09,43,8.40
2016,02,18,09,44,8.40
2016,02,18,09,45,8.40
2016,02,18,09,46,8.40
2016,02,18,09,47,8.40
2016,02,18,09,48,8.40
2016,02,18,09,49,8.40
2016,02,18,09,50,8.40
2016,02,18,09,51,8.40
2016,02,18,09,52,8.50
2016,02,18,09,53,8.50
2016,02,18,09,54,8.50
2016,02,18,09,55,8.60
2016,02,18,09,56,8.60
2016,02,18,09,57,8.60
2016,02,18,09,58,8.60
2016,02,18,09,59,8.70
2016,02,18,10,00,8.70
2016,02,18,10,01,8.70
2016,02,18,10,02,8.60
2016,02,18,10,03,8.60
2016,02,18,10,04,8.60
2016,02,18,10,05,8.60
2016,02,18,10,06,8.60
2016,02,18,10,07,8.50
2016,02,18,10,08,8.50
2016,02,18,10,09,8.50
2016,02,18,10,10,8.50
2016,02,18,10,11,8.50
2016,02,18,10,12,8.50
2016,02,18,10,13,8.50
2016,02,18,10,14,8.50
2016,02,18,10,15,8.50
2016,02,18,10,16,8.60
2016,02,18,10,17,8.60
2016,02,18,10,18,8.60
2016,02,18,10,19,8.60
2016,02,18,10,20,8.60
2016,02,18,10,21,8.70
2016,02,18,10,22,8.70
2016,02,18,10,23,8.70
2016,02,18,10,24,8.70
2016,02,18,10,25,8.70
2016,02,18,10,26,8.70
2016,02,18,10,27,8.70
2016,02,18,10,28,8.70
2016,02,18,10,29,8.70
2016,02,18,10,30,8.70
2016,02,18,10,31,8.60
2016,02,18,10,32,8.60
2016,02,18,10,33,8.60
2016,02,18,10,34,8.60
2016,02,18,10,35,8.60
2016,02,18,10,36,8.60
2016,02,18,10,37,8.60
2016,02,18,10,38,8.60
2016,02,18,10,39,8.60
2016,02,18,10,40,8.60
2016,02,18,10,41,8.60
2016,02,18,10,42,8.60
2016,02,18,10,43,8.70
2016,02,18,10,44,8.70
2016,02,18,10,45,8.70
2016,02,18,10,46,8.70
2016,02,18,10,47,8.70
2016,02,18,10,48,8.70
2016,02,18,10,49,8.70
2016,02,18,10,50,8.70
2016,02,18,10,51,8.70
2016,02,18,10,52,8.60
2016,02,18,10,53,8.60
2016,02,18,10,54,8.60
2016,02,18,10,55,8.70
2016,02,18,10,56,8.70
2016,02,18,10,57,8.70
2016,02,18,10,58,8.80
2016,02,18,10,59,8.80
2016,02,18,11,00,8.80
2016,02,18,11,01,8.80
2016,02,18,11,02,8.80
2016,02,18,11,03,8.80
2016,02,18,11,04,8.90
2016,02,18,11,05,8.80
2016,02,18,11,06,8.80
2016,02,18,11,07,8.80
2016,02,18,11,08,8.80
2016,02,18,11,09,8.80
2016,02,18,11,10,8.90
2016,02,18,11,11,9.00
2016,02,18,11,12,9.00
2016,02,18,11,13,9.10
2016,02,18,11,14,9.20
2016,02,18,11,15,9.20
2016,02,18,11,16,9.30
2016,02,18,11,17,9.40
2016,02,18,11,18,9.40
2016,02,18,11,19,9.50
2016,02,18,11,20,9.50
2016,02,18,11,21,9.50
2016,02,18,11,22,9.50
2016,02,18,11,23,9.50
2016,02,18,11,24,9.60
2016,02,18,11,25,9.60
2016,02,18,11,26,9.50
2016,02,18,11,27,9.50
2016,02,18,11,28,9.50
2016,02,18,11,29,9.40
2016,02,18,11,30,9.40
2016,02,18,11,31,9.40
2016,02,18,11,32,9.40
2016,02,18,11,33,9.40
2016,02,18,11,34,9.30
2016,02,18,11,35,9.40
2016,02,18,11,36,9.40
2016,02,18,11,37,9.40
2016,02,18,11,38,9.40
2016,02,18,11,39,9.40
2016,02,18,11,40,9.40
2016,02,18,11,41,9.50
2016,02,18,11,42,9.50
2016,02,18,11,43,9.50
2016,02,18,11,44,9.50
2016,02,18,11,45,9.50
2016,02,18,11,46,9.50
2016,02,18,11,47,9.60
2016,02,18,11,48,9.60
2016,02,18,11,49,9.60
2016,02,18,11,50,9.70
2016,02,18,11,51,9.70
2016,02,18,11,52,9.70
2016,02,18,11,53,9.70
2016,02,18,11,54,9.70
2016,02,18,11,55,9.70
2016,02,18,11,56,9.70
2016,02,18,11,57,9.70
2016,02,18,11,58,9.70
2016,02,18,11,59,9.70
2016,02,18,12,00,9.70
2016,02,18,12,01,9.70
2016,02,18,12,02,9.70
2016,02,18,12,03,9.70
2016,02,18,12,04,9.70
2016,02,18,12,05,9.70
2016,02,18,12,06,9.80
2016,02,18,12,07,9.90
2016,02,18,12,08,10.00
2016,02,18,12,09,10.20
2016,02,18,12,10,10.30
2016,02,18,12,11,10.40
2016,02,18,12,12,10.50
2016,02,18,12,13,10.60
2016,02,18,12,14,10.60
2016,02,18,12,15,10.70
2016,02,18,12,16,10.70
2016,02,18,12,17,10.80
2016,02,18,12,18,10.80
2016,02,18,12,19,10.90
2016,02,18,12,20,10.80
2016,02,18,12,21,10.70
2016,02,18,12,22,10.60
2016,02,18,12,23,10.60
2016,02,18,12,24,10.60
2016,02,18,12,25,10.60
2016,02,18,12,26,10.70
2016,02,18,12,27,10.70
2016,02,18,12,28,10.80
2016,02,18,12,29,10.80
2016,02,18,12,30,10.80
2016,02,18,12,31,10.70
2016,02,18,12,32,10.60
2016,02,18,12,33,10.60
2016,02,18,12,34,10.60
2016,02,18,12,35,10.60
2016,02,18,12,36,10.60
2016,02,18,12,37,10.60
2016,02,18,12,38,10.60
2016,02,18,12,39,10.60
2016,02,18,12,40,10.60
2016,02,18,12,41,10.60
2016,02,18,12,42,10.70
2016,02,18,12,43,10.70
2016,02,18,12,44,10.80
2016,02,18,12,45,10.80
2016,02,18,12,46,10.80
2016,02,18,12,47,10.80
2016,02,18,12,48,10.80
2016,02,18,12,49,10.70
2016,02,18,12,50,10.70
2016,02,18,12,51,10.70
2016,02,18,12,52,10.80
2016,02,18,12,53,10.80
2016,02,18,12,54,10.90
2016,02,18,12,55,11.00
2016,02,18,12,56,11.10
2016,02,18,12,57,11.20
2016,02,18,12,58,11.30
2016,02,18,12,59,11.30
2016,02,18,13,00,11.40
2016,02,18,13,01,11.50
2016,02,18,13,02,11.60
2016,02,18,13,03,11.60
2016,02,18,13,04,11.60
2016,02,18,13,05,11.60
2016,02,18,13,06,11.70
2016,02,18,13,07,11.80
2016,02,18,13,08,11.80
2016,02,18,13,09,11.80
2016,02,18,13,10,11.80
2016,02,18,13,11,11.80
2016,02,18,13,12,11.80
2016,02,18,13,13,11.70
2016,02,18,13,14,11.50
2016,02,18,13,15,11.40
2016,02,18,13,16,11.40
2016,02,18,13,17,11.40
2016,02,18,13,18,11.40
2016,02,18,13,19,11.40
2016,02,18,13,20,11.40
2016,02,18,13,21,11.40
2016,02,18,13,22,11.40
2016,02,18,13,23,11.50
2016,02,18,13,24,11.60
2016,02,18,13,25,11.60
2016,02,18,13,26,11.60
2016,02,18,13,27,11.70
2016,02,18,13,28,11.70
2016,02,18,13,29,11.70
2016,02,18,13,30,11.70
2016,02,18,13,31,11.70
2016,02,18,13,32,11.70
2016,02,18,13,33,11.70
2016,02,18,13,34,11.70
2016,02,18,13,35,11.80
2016,02,18,13,36,11.80
2016,02,18,13,37,11.80
2016,02,18,13,38,11.90
2016,02,18,13,39,12.00
2016,02,18,13,40,12.00
2016,02,18,13,41,12.00
2016,02,18,13,42,11.90
2016,02,18,13,43,11.90
2016,02,18,13,44,11.80
2016,02,18,13,45,11.80
2016,02,18,13,46,11.70
2016,02,18,13,47,11.70
2016,02,18,13,48,11.70
2016,02,18,13,49,11.70
2016,02,18,13,50,11.70
2016,02,18,13,51,11.80
2016,02,18,13,52,11.70
2016,02,18,13,53,11.70
2016,02,18,13,54,11.70
2016,02,18,13,55,11.70
2016,02,18,13,56,11.70
2016,02,18,13,57,11.80
2016,02,18,13,58,11.80
2016,02,18,13,59,11.80
2016,02,18,14,00,11.80
2016,02,18,14,01,11.80
2016,02,18,14,02,11.90
2016,02,18,14,03,11.90
2016,02,18,14,04,11.90
2016,02,18,14,05,11.80
2016,02,18,14,06,11.80
2016,02,18,14,07,11.80
2016,02,18,14,08,11.90
2016,02,18,14,09,12.00
2016,02,18,14,10,12.10
2016,02,18,14,11,12.10
2016,02,18,14,12,12.00
2016,02,18,14,13,11.90
2016,02,18,14,14,11.80
2016,02,18,14,15,11.60
2016,02,18,14,16,11.50
2016,02,18,14,17,11.40
2016,02,18,14,18,11.30
2016,02,18,14,19,11.20
2016,02,18,14,20,11.20
2016,02,18,14,21,11.10
2016,02,18,14,22,11.20
2016,02,18,14,23,11.20
2016,02,18,14,24,11.10
2016,02,18,14,25,11.10
2016,02,18,14,26,11.20
2016,02,18,14,27,11.30
2016,02,18,14,28,11.40
2016,02,18,14,29,11.40
2016,02,18,14,30,11.60
2016,02,18,14,31,11.60
2016,02,18,14,32,11.60
2016,02,18,14,33,11.70
2016,02,18,14,34,11.80
2016,02,18,14,35,11.80
2016,02,18,14,36,11.80
2016,02,18,14,37,11.90
2016,02,18,14,38,12.00
2016,02,18,14,39,12.00
2016,02,18,14,40,12.10
2016,02,18,14,41,12.20
2016,02,18,14,42,12.20
2016,02,18,14,43,12.30
2016,02,18,14,44,12.30
2016,02,18,14,45,12.30
2016,02,18,14,46,12.30
2016,02,18,14,47,12.30
2016,02,18,14,48,12.30
2016,02,18,14,49,12.30
2016,02,18,14,50,12.30
2016,02,18,14,51,12.30
2016,02,18,14,52,12.30
2016,02,18,14,53,12.30
2016,02,18,14,54,12.40
2016,02,18,14,55,12.40
2016,02,18,14,56,12.30
2016,02,18,14,57,12.30
2016,02,18,14,58,12.30
2016,02,18,14,59,12.30
2016,02,18,15,00,12.30
2016,02,18,15,01,12.30
2016,02,18,15,02,12.30
2016,02,18,15,03,12.30
2016,02,18,15,04,12.20
2016,02,18,15,05,12.30
2016,02,18,15,06,12.30
2016,02,18,15,07,12.30
2016,02,18,15,08,12.40
2016,02,18,15,09,12.50
2016,02,18,15,10,12.50
2016,02,18,15,11,12.60
2016,02,18,15,12,12.60
2016,02,18,15,13,12.50
2016,02,18,15,14,12.50
2016,02,18,15,15,12.50
2016,02,18,15,16,12.50
2016,02,18,15,17,12.50
2016,02,18,15,18,12.50
2016,02,18,15,19,12.50
2016,02,18,15,20,12.40
2016,02,18,15,21,12.30
2016,02,18,15,22,12.30
2016,02,18,15,23,12.30
2016,02,18,15,24,12.30
2016,02,18,15,25,12.40
2016,02,18,15,26,12.40
2016,02,18,15,27,12.40
2016,02,18,15,28,12.40
2016,02,18,15,29,12.40
2016,02,18,15,30,12.40
2016,02,18,15,31,12.40
2016,02,18,15,32,12.40
2016,02,18,15,33,12.30
2016,02,18,15,34,12.30
2016,02,18,15,35,12.20
2016,02,18,15,36,12.20
2016,02,18,15,37,12.20
2016,02,18,15,38,12.20
2016,02,18,15,39,12.20
2016,02,18,15,40,12.20
2016,02,18,15,41,12.10
2016,02,18,15,42,12.10
2016,02,18,15,43,12.00
2016,02,18,15,44,12.00
2016,02,18,15,45,12.00
2016,02,18,15,46,12.00
2016,02,18,15,47,12.00
2016,02,18,15,48,12.00
2016,02,18,15,49,11.90
2016,02,18,15,50,11.90
2016,02,18,15,51,11.80
2016,02,18,15,52,11.80
2016,02,18,15,53,11.70
2016,02,18,15,54,11.70
2016,02,18,15,55,11.70
2016,02,18,15,56,11.70
2016,02,18,15,57,11.70
2016,02,18,15,58,11.70
2016,02,18,15,59,11.70
2016,02,18,16,00,11.70
2016,02,18,16,01,11.70
2016,02,18,16,02,11.80
2016,02,18,16,03,11.80
2016,02,18,16,04,11.80
2016,02,18,16,05,11.70
2016,02,18,16,06,11.60
2016,02,18,16,07,11.60
2016,02,18,16,08,11.60
2016,02,18,16,09,11.60
2016,02,18,16,10,11.60
2016,02,18,16,11,11.60
2016,02,18,16,12,11.60
2016,02,18,16,13,11.60
2016,02,18,16,14,11.60
2016,02,18,16,15,11.50
2016,02,18,16,16,11.40
2016,02,18,16,17,11.40
2016,02,18,16,18,11.40
2016,02,18,16,19,11.40
2016,02,18,16,20,11.30
2016,02,18,16,21,11.20
2016,02,18,16,22,11.10
2016,02,18,16,23,11.00
2016,02,18,16,24,10.90
2016,02,18,16,25,10.80
2016,02,18,16,26,10.80
2016,02,18,16,27,10.80
2016,02,18,16,28,10.80
2016,02,18,16,29,10.80
2016,02,18,16,30,10.80
2016,02,18,16,31,10.80
2016,02,18,16,32,10.70
2016,02,18,16,33,10.70
2016,02,18,16,34,10.70
2016,02,18,16,35,10.60
2016,02,18,16,36,10.60
2016,02,18,16,37,10.60
2016,02,18,16,38,10.40
2016,02,18,16,39,10.40
2016,02,18,16,40,10.40
2016,02,18,16,41,10.40
2016,02,18,16,42,10.40
2016,02,18,16,43,10.40
2016,02,18,16,44,10.30
2016,02,18,16,45,10.30
2016,02,18,16,46,10.30
2016,02,18,16,47,10.20
2016,02,18,16,48,10.20
2016,02,18,16,49,10.20
2016,02,18,16,50,10.10
2016,02,18,16,51,10.10
2016,02,18,16,52,10.10
2016,02,18,16,53,10.10
2016,02,18,16,54,10.10
2016,02,18,16,55,10.10
2016,02,18,16,56,10.10
2016,02,18,16,57,10.10
2016,02,18,16,58,10.10
2016,02,18,16,59,10.10
2016,02,18,17,00,10.10
2016,02,18,17,01,10.10
2016,02,18,17,02,10.10
2016,02,18,17,03,10.10
2016,02,18,17,04,9.90
2016,02,18,17,05,9.90
2016,02,18,17,06,9.90
2016,02,18,17,07,9.90
2016,02,18,17,08,9.90
2016,02,18,17,09,9.90
2016,02,18,17,10,9.90
2016,02,18,17,11,10.10
2016,02,18,17,12,10.10
2016,02,18,17,13,10.10
2016,02,18,17,14,10.10
2016,02,18,17,15,10.10
2016,02,18,17,16,10.10
2016,02,18,17,17,10.10
2016,02,18,17,18,10.10
2016,02,18,17,19,10.10
2016,02,18,17,20,10.10
2016,02,18,17,21,10.10
2016,02,18,17,22,10.10
2016,02,18,17,23,10.10
2016,02,18,17,24,10.10
2016,02,18,17,25,10.10
